CDT,Max TemperatureF,Mean TemperatureF,Min TemperatureF,Max Dew PointF,MeanDew PointF,Min DewpointF,Max Humidity, Mean Humidity, Min Humidity, Max Sea Level PressureIn, Mean Sea Level PressureIn, Min Sea Level PressureIn, Max VisibilityMiles, Mean VisibilityMiles, Min VisibilityMiles, Max Wind SpeedMPH, Mean Wind SpeedMPH, Max Gust SpeedMPH,PrecipitationIn, CloudCover, Events, WindDirDegrees
2012-9-1,101,83,65,56,50,45,58,37,16,29.94,29.79,29.65,10,10,10,31,22,40,0.00,0,,150
2012-9-2,89,73,56,59,51,40,57,38,18,29.86,29.76,29.64,10,10,10,29,9,39,0.00,0,,338
2012-9-3,97,75,53,56,50,41,72,44,16,29.89,29.82,29.72,10,10,10,22,11,45,0.00,0,,185
2012-9-4,91,68,45,56,45,25,100,55,9,29.89,29.83,29.70,10,8,0,22,6,28,0.00,1,Fog,22
2012-9-5,80,65,50,44,40,35,71,46,21,30.02,29.94,29.87,10,10,10,21,11,25,0.00,0,,323
2012-9-6,78,64,50,49,44,39,77,53,28,30.03,29.90,29.84,10,10,10,23,10,31,0.00,0,,51
2012-9-7,72,57,42,50,43,38,96,63,29,30.19,30.14,30.05,10,10,10,20,8,26,0.00,0,,348
2012-9-8,76,59,41,46,36,28,89,54,19,30.18,30.12,30.06,10,10,10,22,9,29,0.00,0,,357
2012-9-9,80,58,35,44,37,31,89,54,18,30.21,30.06,29.81,10,10,10,24,13,29,0.00,0,,143
2012-9-10,98,81,64,45,40,33,48,30,12,29.80,29.60,29.53,10,10,10,24,11,29,0.00,0,,150
2012-9-11,78,67,55,47,35,27,67,42,16,30.01,29.74,29.50,10,10,10,30,12,38,0.00,0,,6
2012-9-12,74,58,41,40,28,18,70,41,12,30.28,30.18,30.01,10,10,10,18,7,23,0.00,0,,345
2012-9-13,80,58,36,36,28,20,85,48,11,30.34,30.27,30.18,10,10,10,18,4,21,0.00,0,,336
2012-9-14,77,60,43,37,33,28,70,44,18,30.33,30.23,30.12,10,10,10,13,6,21,0.00,0,,354
2012-9-15,88,69,49,41,35,28,55,36,16,30.10,29.95,29.85,10,10,10,14,8,17,0.00,0,,148
2012-9-16,68,57,46,46,42,38,86,64,42,30.13,30.02,29.92,10,9,1,25,11,31,T,1,,22
2012-9-17,63,52,40,45,36,25,96,61,25,30.14,30.12,30.08,10,10,10,21,8,29,0.00,2,,349
2012-9-18,83,60,36,43,34,27,70,44,18,30.09,29.88,29.71,10,10,10,20,8,25,0.00,2,,205
2012-9-19,71,62,53,41,31,19,59,37,15,30.01,29.88,29.66,10,10,10,36,16,43,0.00,0,,334
2012-9-20,69,59,48,38,31,26,52,36,20,30.04,29.95,29.84,10,10,10,16,5,24,0.00,2,,313
2012-9-21,73,57,41,37,33,29,71,47,22,30.14,29.95,29.86,10,10,10,25,11,33,0.00,0,,334
2012-9-22,58,42,26,32,25,20,92,59,26,30.37,30.30,30.17,10,10,10,13,6,17,0.00,0,,43
2012-9-23,67,51,35,29,25,21,64,41,18,30.30,30.23,30.11,10,10,10,13,8,17,0.00,0,,125
2012-9-24,83,59,34,35,31,27,92,54,16,30.09,29.91,29.78,10,10,10,16,4,22,0.00,0,,319
2012-9-25,74,57,39,39,35,31,70,47,23,29.98,29.90,29.82,10,10,10,20,8,28,0.00,0,,95
2012-9-26,78,60,42,40,37,35,76,50,24,30.11,30.06,29.98,10,10,10,17,11,21,0.00,0,,129
2012-9-27,84,67,50,50,44,40,74,50,26,30.10,30.06,30.00,10,10,10,21,8,23,0.03,1,,161
2012-9-28,82,66,50,46,41,36,77,49,20,30.13,30.07,30.01,10,10,10,16,9,21,0.00,0,,145
2012-9-29,84,67,50,43,38,34,63,41,19,30.05,29.98,29.90,10,10,10,21,10,29,0.00,0,,150
2012-9-30,79,63,47,50,43,40,71,51,31,30.06,29.94,29.89,10,10,8,25,6,33,0.02,3,Rain,27